Location: �terpigny
(49.8910°N, 2.9249°E)
Time: 07:09:09
(UTC+00:00)

CUBESAT XI-V - Pass Details

Date: 27 June 2022
Orbit: 667 x 690 km, 98.1° (Epoch: 08 August)

Event Time Altitude Azimuth Distance (km) Brightness Sun altitude
Exits shadow 00:33:58 - 132° (SE) 2,242 ? -16.2°
Reaches altitude 10° 00:34:19 10° 130° (SE) 2,112 ? -16.2°
Maximum altitude 00:38:29 35° 66° (ENE) 1,096 ? -16.0°
Drops below altitude 10° 00:42:39 10° 1° (N) 2,114 ? -15.9°
Sets 00:45:02 0° 353° (N) 3,030 ? -15.8°
